Location: Pic du Midi - T1M
(42.9366°N, 0.1426°E)
Time: 21:20:41
(UTC+01:00)

CUBEBUG 2 - Visible Passes

Search period start: 19 September 2021 00:00
Search period end: 29 September 2021 00:00
Orbit: 586 x 696 km, 97.7° (Epoch: 19 September)

Date Brightness Start Highest point End Pass type
(mag) Time Alt. Az. Time Alt. Az. Time Alt. Az.
19 Sep ? 04:29:35 10° NNE 04:34:21 75° ESE 04:35:49 44° S visible
19 Sep ? 06:07:56 10° NNW 06:10:15 14° WNW 06:12:32 10° W visible
20 Sep ? 03:18:36 10° ENE 03:21:05 14° E 03:22:06 13° ESE visible
20 Sep ? 04:53:22 10° N 04:58:03 63° WNW 04:59:41 38° SW visible
21 Sep ? 03:41:14 10° NE 03:45:04 24° E 03:45:59 23° ESE visible
21 Sep ? 05:17:21 10° N 05:21:41 37° WNW 05:23:34 26° WSW visible
22 Sep ? 04:04:29 10° NNE 04:08:58 41° E 04:09:51 37° SE visible
22 Sep ? 05:41:35 10° NNW 05:45:13 22° WNW 05:47:26 16° WSW visible
23 Sep ? 04:28:02 10° NNE 04:32:46 73° ESE 04:33:42 55° SSE visible
23 Sep ? 06:06:20 10° NNW 06:08:40 14° WNW 06:10:59 10° W visible
24 Sep ? 03:17:10 10° ENE 03:19:29 14° E 03:19:58 13° E visible
24 Sep ? 04:51:48 10° N 04:56:28 65° WNW 04:57:34 48° SW visible
25 Sep ? 03:39:43 10° NE 03:43:28 23° E 03:43:49 23° E visible
25 Sep ? 05:15:46 10° N 05:20:06 37° WNW 05:21:25 31° WSW visible
26 Sep ? 04:02:56 10° NNE 04:07:21 40° E 04:07:41 39° ESE visible
26 Sep ? 05:40:01 10° NNW 05:43:38 23° WNW 05:45:16 19° W visible
27 Sep ? 04:26:29 10° NNE 04:31:10 71° ESE 04:31:32 67° SE visible
27 Sep ? 06:04:44 10° NNW 06:07:05 14° WNW 06:09:07 11° W visible
28 Sep ? 03:15:44 10° ENE 03:17:47 13° E 03:17:47 13° E visible
28 Sep ? 04:50:14 10° N 04:54:53 66° WNW 04:55:23 61° WSW visible
